Regional Weather Roundup
Issued by NWS

Home | Current Version | Previous Version | Text Only | Print | Product List | Glossary Off
Versions: 1 2 3 4 5 6 7 8 9 10 11 12 13 14 15 16 17 18 19 20 21 22 23 24 25 26 27 28 29 30 31 32 33 34 35 36 37 38 39 40 41 42 43 44 45 46 47 48 49 50

000
ASUS45 KBOI 100510
RWRID

IDAHO REGIONAL WEATHER ROUNDUP
NATIONAL WEATHER SERVICE BOISE ID
1000 PM MST SAT DEC 09 2017

NOTE: "FAIR" INDICATES FEW OR NO CLOUDS BELOW 12000 FEET
WITH NO SIGNIFICANT WEATHER AND/OR OBSTRUCTIONS TO VISIBILITY

IDZ012-014-100600-
SOUTHWEST IDAHO


CITY           SKY/WX    TMP DP  RH WIND       PRES   REMARKS
BOISE          CLOUDY    27  20  75 SE5       30.72S WCI  22
CALDWELL       CLOUDY    28  21  75 SE6       30.76R WCI  22
MOUNTAIN HOME  CLOUDY    23  23 100 CALM      30.71S
$$

IDZ016-017-100600-
SOUTHCENTRAL IDAHO


CITY           SKY/WX    TMP DP  RH WIND       PRES   REMARKS
BURLEY         CLOUDY    20  18  92 NE6       30.64S FOG     WCI  12
JEROME         FOG       18  16  92 E6        30.66S VSB 1/4 WCI  10
TWIN FALLS     CLOUDY    20  20 100 NE5       30.65S FOG     WCI  13
$$

IDZ019>023-100600-
SOUTHEAST IDAHO


CITY           SKY/WX    TMP DP  RH WIND       PRES   REMARKS
IDAHO FALLS    FOG        5   2  87 MISG      30.64S VSB 1/4
POCATELLO      FOG       14  11  87 CALM      30.65S VSB 1/4
REXBURG        CLOUDY    10   7  87 NE7       30.63R WCI  -1
$$

IDZ006-010-011-018-031-032-100600-
CENTRAL IDAHO MOUNTAINS


CITY           SKY/WX    TMP DP  RH WIND       PRES   REMARKS
MCCALL         CLEAR     10   7  87 CALM      30.57S
HAILEY         CLEAR     18  16  93 NW3       30.62R
STANLEY          N/A      3   0  87 CALM      30.65R
SALMON         CLOUDY    19  15  84 CALM      30.76S
CHALLIS        CLEAR      9   6  88 CALM      30.67S
$$

IDZ002-004-006-007-026-100600-
NORTHERN IDAHO


CITY           SKY/WX    TMP DP  RH WIND       PRES   REMARKS
LEWISTON       CLOUDY    29  26  89 S3        30.68S
LOWELL           N/A     26  24  92 CALM      30.70S
COEUR D`ALENE  CLOUDY    28  24  85 N6        30.65S WCI  22
MULLAN PASS    CLEAR     34  11  38 W5        30.50S WCI  30
$$



USA.gov is the U.S. government's official web portal to all federal, state and local government web resources and services.